DW4360 Weather Reports


time (UTC)temp
C
wind
direction
speed
KPH
gust
KPH
rain 1hr
cm
rain 24hr
cm
rain mn
cm
humidity
%
barometer
mb
20260831214520 31 285 0.0 0.0 0.00 0.00 0.00 34 1006.5
20260831213519 31 48 0.0 0.0 0.00 0.00 0.00 35 1006.8
20260831212518 31 311 0.0 0.0 0.00 0.00 0.00 34 1006.8
20260831211517 30 310 0.0 0.0 0.00 0.00 0.00 38 1006.9
20260831210516 29 331 0.0 0.0 0.00 0.00 0.00 38 1007.0
20260831205515 29 323 0.0 0.0 0.00 0.00 0.00 40 1007.1
20260831203513 28 336 0.0 0.0 0.00 0.00 0.00 42 1007.3
20260831202512 27 329 6.4 0.0 0.00 0.00 0.00 43 1007.4
20260831201511 27 335 0.0 0.0 0.00 0.00 0.00 44 1007.6
20260831200510 26 5 0.0 0.0 0.00 0.00 0.00 45 1007.7
20260831195509 26 323 0.0 0.0 0.00 0.00 0.00 47 1007.8
20260831194508 25 322 0.0 0.0 0.00 0.00 0.00 49 1008.0
20260831193507 25 112 0.0 0.0 0.00 0.00 0.00 50 1008.0
20260831192506 24 316 0.0 0.0 0.00 0.00 0.00 51 1008.1
20260831191505 24 329 6.4 0.0 0.00 0.00 0.00 52 1008.4
20260831190504 23 326 0.0 0.0 0.00 0.00 0.00 53 1008.6
20260831185503 23 325 0.0 0.0 0.00 0.00 0.00 54 1008.7
20260831184502 23 320 0.0 0.0 0.00 0.00 0.00 55 1008.8
20260831183501 23 326 0.0 0.0 0.00 0.00 0.00 55 1008.9
20260831182459 23 330 0.0 0.0 0.00 0.00 0.00 54 1009.1
20260831181459 23 313 0.0 0.0 0.00 0.00 0.00 55 1009.2
20260831180459 23 331 8.0 0.0 0.00 0.00 0.00 55 1009.3
20260831175457 23 319 0.0 0.0 0.00 0.00 0.00 58 1009.5
20260831172453 20 330 0.0 0.0 0.00 0.00 0.00 66 1009.7
20260831171453 18 320 0.0 0.0 0.00 0.00 0.00 70 1009.8
20260831165450 17 331 0.0 0.0 0.00 0.00 0.00 75 1009.9
20260831164449 16 312 4.8 0.0 0.00 0.00 0.00 77 1010.0
20260831163448 16 315 0.0 0.0 0.00 0.00 0.00 78 1010.0
20260831162448 16 319 6.4 0.0 0.00 0.00 0.00 80 1010.0
20260831161446 15 324 0.0 0.0 0.00 0.00 0.00 81 1010.3
20260831160445 15 327 0.0 0.0 0.00 0.00 0.00 82 1010.3
20260831154444 15 325 0.0 0.0 0.00 0.00 0.00 84 1010.3
20260831153442 15 317 0.0 0.0 0.00 0.00 0.00 85 1010.3
20260831152442 14 316 3.2 0.0 0.00 0.00 0.00 86 1010.4
20260831151440 14 323 8.0 0.0 0.00 0.00 0.00 87 1010.7
20260831150439 13 325 0.0 0.0 0.00 0.00 0.00 88 1010.6
20260831145438 13 318 0.0 0.0 0.00 0.00 0.00 89 1010.7
20260831144438 13 320 0.0 0.0 0.00 0.00 0.00 89 1010.7
20260831143436 13 320 0.0 0.0 0.00 0.00 0.00 89 1010.7
20260831142436 13 320 0.0 0.0 0.00 0.00 0.00 89 1010.6
20260831141434 13 320 0.0 0.0 0.00 0.00 0.00 88 1010.6
20260831140433 13 320 0.0 0.0 0.00 0.00 0.00 88 1010.7
20260831135432 13 320 0.0 0.0 0.00 0.00 0.00 88 1010.8
20260831133430 13 320 0.0 0.0 0.00 0.00 0.00 87 1010.7
20260831132429 13 320 0.0 0.0 0.00 0.00 0.00 87 1010.8
20260831130427 13 320 0.0 0.0 0.00 0.00 0.00 87 1010.8
20260831125426 13 320 0.0 0.0 0.00 0.00 0.00 86 1010.9
20260831124425 13 320 0.0 0.0 0.00 0.00 0.00 86 1011.0
20260831123424 13 320 0.0 0.0 0.00 0.00 0.00 86 1010.9
20260831122423 13 320 0.0 0.0 0.00 0.00 0.00 86 1011.1
20260831121422 13 320 0.0 0.0 0.00 0.00 0.00 86 1011.2
20260831120421 13 320 0.0 0.0 0.00 0.00 0.00 86 1011.2
20260831115420 14 320 0.0 0.0 0.00 0.00 0.00 85 1011.2
20260831114419 14 320 0.0 0.0 0.00 0.00 0.00 84 1011.3
20260831113418 14 320 0.0 0.0 0.00 0.00 0.00 84 1011.4
20260831112417 14 320 0.0 0.0 0.00 0.00 0.00 84 1011.4
20260831111416 15 320 0.0 0.0 0.00 0.00 0.00 83 1011.5
20260831105414 15 320 0.0 0.0 0.00 0.00 0.00 83 1011.6
20260831103412 15 320 0.0 0.0 0.00 0.00 0.00 82 1011.6
20260831102411 15 320 0.0 0.0 0.00 0.00 0.00 82 1011.7
20260831101410 15 320 0.0 0.0 0.00 0.00 0.00 81 1011.7
20260831100409 15 320 0.0 0.0 0.00 0.00 0.00 81 1011.8
20260831095408 15 320 0.0 0.0 0.00 0.00 0.00 81 1011.9
20260831094407 15 320 0.0 0.0 0.00 0.00 0.00 81 1012.0
20260831093406 15 320 0.0 0.0 0.00 0.00 0.00 81 1012.1
20260831092405 15 320 0.0 0.0 0.00 0.00 0.00 81 1012.1
20260831091404 15 320 0.0 0.0 0.00 0.00 0.00 81 1012.2
20260831090403 15 320 0.0 0.0 0.00 0.00 0.00 80 1012.3
20260831083400 16 319 0.0 0.0 0.00 0.00 0.00 79 1012.6
20260831082359 16 319 0.0 0.0 0.00 0.00 0.00 78 1012.8
20260831081358 16 320 0.0 0.0 0.00 0.00 0.00 78 1012.8
20260831080357 16 320 0.0 0.0 0.00 0.00 0.00 77 1012.9
20260831075356 16 319 0.0 0.0 0.00 0.00 0.00 77 1013.0
20260831073354 17 319 0.0 0.0 0.00 0.00 0.00 76 1013.0
20260831071352 17 319 0.0 0.0 0.00 0.00 0.00 75 1013.2
20260831070351 17 319 0.0 0.0 0.00 0.00 0.00 74 1013.2
20260831065349 17 319 0.0 0.0 0.00 0.00 0.00 74 1013.3
20260831064349 17 309 0.0 0.0 0.00 0.00 0.00 74 1013.4
20260831063348 17 327 0.0 0.0 0.00 0.00 0.00 73 1013.5
20260831060344 18 327 0.0 0.0 0.00 0.00 0.00 71 1013.7
20260831053341 18 325 4.8 0.0 0.00 0.00 0.00 70 1013.9
20260831051340 18 325 0.0 0.0 0.00 0.00 0.00 69 1014.2
20260831050338 18 317 3.2 0.0 0.00 0.00 0.00 68 1014.2
20260831045337 18 317 3.2 0.0 0.00 0.00 0.00 68 1014.3
20260831044337 18 317 0.0 0.0 0.00 0.00 0.00 67 1014.3
20260831043335 18 320 0.0 0.0 0.00 0.00 0.00 66 1014.4
20260831040332 19 318 6.4 0.0 0.00 0.00 0.00 65 1014.5
20260831034330 19 326 0.0 0.0 0.00 0.00 0.00 63 1014.5
20260831033329 20 326 0.0 0.0 0.00 0.00 0.00 62 1014.5
20260831031327 20 324 0.0 0.0 0.00 0.00 0.00 61 1014.5
20260831030326 20 321 0.0 0.0 0.00 0.00 0.00 60 1014.6
20260831025325 20 318 0.0 0.0 0.00 0.00 0.00 59 1014.5
20260831024324 20 317 4.8 0.0 0.00 0.00 0.00 58 1014.6
20260831023323 21 333 12.9 0.0 0.00 0.00 0.00 58 1014.8
20260831021321 21 319 9.7 0.0 0.00 0.00 0.00 56 1014.7
20260831020320 21 313 0.0 0.0 0.00 0.00 0.00 55 1014.9
20260831015319 21 338 14.5 0.0 0.00 0.00 0.00 55 1014.9
20260831014318 21 321 9.7 0.0 0.00 0.00 0.00 54 1015.0
20260831011315 22 317 0.0 0.0 0.00 0.00 0.00 50 1015.3
20260831010314 23 306 0.0 0.0 0.00 0.00 0.00 49 1015.3
20260831005313 23 306 8.0 0.0 0.00 0.00 0.00 48 1015.4
20260831004312 24 321 11.3 0.0 0.00 0.00 0.00 46 1015.5
20260831003311 25 317 3.2 0.0 0.00 0.00 0.00 44 1015.6
20260831002310 25 5 0.0 0.0 0.00 0.00 0.00 43 1015.7
20260831001309 25 323 4.8 0.0 0.00 0.00 0.00 42 1015.7
20260830235307 25 321 0.0 0.0 0.00 0.00 0.00 42 1015.8
20260830233305 24 326 0.0 0.0 0.00 0.00 0.00 46 1016.0
20260830232306 24 323 6.4 0.0 0.00 0.00 0.00 45 1016.2
20260830231303 24 323 6.4 0.0 0.00 0.00 0.00 46 1016.2
20260830230302 23 308 0.0 0.0 0.00 0.00 0.00 47 1016.3
20260830225305 23 299 6.4 0.0 0.00 0.00 0.00 48 1016.5
20260830224300 23 317 6.4 0.0 0.00 0.00 0.00 48 1016.7
20260830223259 23 317 0.0 0.0 0.00 0.00 0.00 47 1016.9
20260830222258 23 329 0.0 0.0 0.00 0.00 0.00 46 1017.1